Location: Caltech
(34.1382°N, 118.1253°W)
Time: 16:48:55
(UTC-07:00)

Iridium 3 - Visible Passes

Search period start: 31 May 2016 00:00
Search period end: 10 June 2016 00:00
Orbit: 776 x 779 km, 86.4° (Epoch: 31 May)

Date Brightness Start Highest point End Pass type
(mag) Time Alt. Az. Time Alt. Az. Time Alt. Az.
31 May 6.7 00:08:03 10° NNW 00:11:36 38° NW 00:11:36 38° NW visible
31 May 6.2 23:34:22 10° N 23:38:16 52° N 23:38:16 52° N visible
01 Jun 6.4 23:01:04 10° NNE 23:04:56 38° NE 23:04:56 38° NE visible
02 Jun 7.7 00:43:03 10° NW 00:45:25 16° WNW 00:45:25 16° WNW visible
02 Jun 7.1 22:28:16 10° NNE 22:31:37 22° ENE 22:31:37 22° ENE visible
03 Jun 7.0 00:08:27 10° NNW 00:12:05 30° WNW 00:12:05 30° WNW visible
03 Jun 7.6 21:56:47 10° NE 21:58:18 12° ENE 21:58:18 12° ENE visible
03 Jun 6.1 23:34:30 10° N 23:38:46 54° NW 23:38:46 54° NW visible
04 Jun 5.8 23:00:58 10° N 23:05:28 59° NE 23:05:28 59° NE visible
05 Jun 8.1 00:44:47 10° WNW 00:45:57 11° WNW 00:45:57 11° WNW visible
05 Jun 6.4 22:27:50 10° NNE 22:32:10 33° ENE 22:32:10 33° ENE visible
06 Jun 7.4 00:09:03 10° NNW 00:12:39 22° WNW 00:12:39 22° WNW visible
06 Jun 7.2 21:55:21 10° NE 21:58:49 18° ENE 21:58:52 18° E visible
06 Jun 6.4 23:34:47 10° NNW 23:39:21 42° WNW 23:39:21 42° WNW visible
07 Jun 5.5 23:01:01 10° N 23:06:04 81° NW 23:06:04 81° NW visible
08 Jun 5.8 22:27:38 10° N 22:32:42 50° E 22:32:48 50° E visible
09 Jun 7.8 00:10:05 10° NW 00:12:54 15° W 00:13:17 15° W visible
09 Jun 6.6 21:54:42 10° NNE 21:59:02 26° E 21:59:32 26° E visible
09 Jun 7.0 23:35:14 10° NNW 23:39:39 28° W 23:40:01 28° W visible
